Tracking 23099 objects as of 13-May-2021
HD Live streaming from Space Station
objects crossing your sky now

OBJECT E

Track OBJECT E now!
10-day predictions


NORAD ID: 45915
Int'l Code: 2019-079E
Perigee: 513.0 km
Apogee: 788.9 km
Inclination: 97.8 °
Period: 97.6 minutes
Semi major axis: 7021 km
RCS: Unknown
Launch date: November 25, 2019
Source: Commonwealth of Independent States (former USSR) (CIS)
Launch site: PLESETSK MISSILE AND SPACE COMPLEX (PKMTR)
aabbcc
Your satellite tracking list
Your tracking list is empty




NASA's NSSDC Master Catalog

Two Line Element Set (TLE):
1 45915U 19079E   21133.52256835  .00000283  00000-0  37699-4 0  9997
2 45915  97.8199 183.8773 0196459 292.7263  65.3299 14.75413980 44544
Source of the keplerian elements: AFSPC